Home > Weather > Phnom Penh > Past weeks

Flag for Cambodia Weather for the Past 2 Weeks in Phnom Penh, Cambodia

Now
99 °F

Scattered clouds.


Feels Like: 108 °F
Forecast: 80 / 97 °F
Wind: 3 mph from North

Location: Phnom-Penh / Pochentong

Current Time: May 1, 2016 at 1:38:31 PM

Latest Report: May 1, 2016 at 1:00 PM


Visibility: N/A

Pressure: 29.74 "Hg

Humidity: 42%

Dew Point: 72 °F

Location of Phnom PenhLocation

Historic Weather in Phnom Penh — Graph

°F

Phnom Penh Temperature Yesterday

Maximum temperature yesterday: 99 °F (at 1:30 PM)
Minimum temperature yesterday: 81 °F (at 6:30 PM)
Average temperature yesterday: 86 °F

High & Low Weather Summary for the Past Weeks

 TemperatureHumidityPressure
High104 °F (Apr 16, 2:00 PM)89% (Apr 17, 6:00 AM)29.89 "Hg (Apr 17, 6:00 AM)
Low79 °F (Apr 29, 6:00 AM)13% (Apr 16, 7:00 PM)29.59 "Hg (Apr 27, 4:00 PM)
Average91 °F56%29.75 "Hg
* Reported Apr 16 11:00 AM — May 1 11:30 AM, Phnom Penh, Weather by CustomWeather, © 2016

Note: Actual official high and low records may vary slightly from our data, if they occured in-between our weather recording intervals... More about our weather records

Advertising

Phnom Penh Weather History for the Previous 24 Hours

Scroll right to see more
 ConditionsComfort  
Time TempWeatherWind HumidityBarometerVisibility
11:30 AM
Sun, May 1
95 °FScattered clouds.2 mph47%29.80 "HgN/A
11:00 AM93 °FScattered clouds.3 mph49%29.80 "HgN/A
10:30 AM93 °FScattered clouds.2 mph49%29.83 "HgN/A
9:30 AM88 °FPassing clouds.2 mph62%29.83 "HgN/A
9:00 AM86 °FPassing clouds.1 mph66%29.83 "HgN/A
8:30 AM86 °FPassing clouds.1 mph66%29.83 "HgN/A
8:00 AM82 °FPassing clouds.2 mph74%29.83 "HgN/A
7:30 AM82 °FPassing clouds.3 mph74%29.83 "HgN/A
6:00 AM79 °FPassing clouds.1 mph84%29.77 "Hg5 mi
2:30 AM81 °FPassing clouds.5 mph79%29.74 "Hg6 mi
2:00 AM81 °FPassing clouds.2 mph74%29.74 "Hg6 mi
1:30 AM81 °FPassing clouds.2 mph74%29.74 "Hg6 mi
1:00 AM81 °FPassing clouds.3 mph74%29.74 "Hg6 mi
12:30 AM81 °FPassing clouds.2 mph79%29.77 "Hg6 mi
12:00 AM81 °FPassing clouds.No wind79%29.77 "Hg6 mi
11:30 PM
Sat, Apr 30
81 °FPartly cloudy.1 mph79%29.80 "Hg6 mi
11:00 PM81 °FPartly cloudy.3 mph79%29.80 "Hg6 mi
10:30 PM81 °FPassing clouds.3 mph79%29.80 "Hg6 mi
10:00 PM81 °FPassing clouds.2 mph79%29.80 "Hg6 mi
9:30 PM81 °FPartly cloudy.2 mph79%29.77 "Hg6 mi
9:00 PM81 °FPartly cloudy.3 mph74%29.77 "Hg6 mi
8:30 PM81 °FThunderstorms. Partly cloudy.3 mph79%29.80 "Hg6 mi
8:00 PM81 °FThunderstorms. Partly cloudy.5 mph79%29.80 "Hg6 mi
7:30 PM81 °FThunderstorms. Partly cloudy.8 mph79%29.80 "Hg6 mi
7:00 PM81 °FPartly cloudy.10 mph79%29.80 "Hg6 mi
6:30 PM81 °FPartly cloudy.8 mph79%29.80 "Hg6 mi
6:00 PM82 °FBroken clouds.12 mph74%29.80 "Hg6 mi
5:30 PM82 °FBroken clouds.13 mph74%29.77 "Hg6 mi
5:00 PM82 °FBroken clouds.15 mph74%29.77 "Hg6 mi
4:30 PM84 °FRain. Broken clouds.15 mph70%29.74 "Hg6 mi
4:00 PM88 °FRain. Broken clouds.10 mph62%29.74 "Hg6 mi
3:30 PM90 °FBroken clouds.7 mph59%29.71 "Hg6 mi
3:00 PM95 °FBroken clouds.7 mph47%29.68 "HgN/A
2:30 PM95 °FThunderstorms. Scattered clouds.8 mph47%29.71 "HgN/A
2:00 PM95 °FScattered clouds.8 mph47%29.71 "HgN/A
1:30 PM99 °FExtremely hot.10 mph42%29.71 "Hg1 mi
1:00 PM97 °FScattered clouds.8 mph44%29.74 "HgN/A
Weather by CustomWeather, © 2016

See weather overviewHow to use our weather pages